Location: Batesville
(34.7480°N, 83.6110°W)
Time: 19:31:22
(UTC-05:00)

N. Korean satellite - Visible Passes

Search period start: 21 January 2018 00:00
Search period end: 31 January 2018 00:00
Orbit: 458 x 515 km, 97.2° (Epoch: 20 January)

Date Brightness Start Highest point End Pass type
(mag) Time Alt. Az. Time Alt. Az. Time Alt. Az.
21 Jan 9.7 06:28:03 10° NE 06:30:24 17° E 06:32:45 10° SE visible
21 Jan 6.5 18:33:01 10° SSE 18:36:37 84° E 18:40:11 10° N visible
23 Jan 9.4 19:20:07 10° SW 19:22:50 20° W 19:25:32 10° NW visible
24 Jan 8.4 06:49:45 10° NNE 06:52:57 35° E 06:56:10 10° SSE visible
24 Jan 7.9 18:55:41 10° S 18:59:06 43° W 19:02:29 10° NNW visible
25 Jan 9.8 06:26:52 10° NE 06:29:12 17° E 06:31:31 10° SE visible
25 Jan 6.5 18:31:51 10° SSE 18:35:26 82° ENE 18:38:57 10° N visible
27 Jan 9.4 19:18:54 10° SW 19:21:37 20° W 19:24:19 10° NW visible
28 Jan 8.4 06:48:30 10° NNE 06:51:43 34° E 06:54:57 10° SSE visible
28 Jan 7.8 18:54:29 10° S 18:57:52 44° W 19:01:14 10° NNW visible
29 Jan 9.8 06:25:39 10° NE 06:27:57 17° E 06:30:16 10° SE visible
29 Jan 6.4 18:30:40 10° SSE 18:34:11 79° ENE 18:37:40 10° N visible
